Location: ????????
(55.6333°N, 37.7000°E)
Time: 10:23:40
(UTC+00:00)

Cosmos 1066 Rocket - Pass Details

Date: 19 May 2025
Orbit: 798 x 892 km, 81.2° (Epoch: 14 June)

Event Time Altitude Azimuth Distance (km) Brightness Sun altitude
Exits shadow 21:23:02 21° 186° (S) 1,821 5.3 -14.4°
Maximum altitude 21:26:54 80° 102° (ESE) 885 4.3 -14.4°
Drops below altitude 10° 21:32:42 10° 16° (NNE) 2,547 8.0 -14.4°
Sets 21:35:11 0° 16° (NNE) 3,499 9.1 -14.4°
